铱星星座 177星 (IRIDIUM 177)

导读

IRIDIUM 177(铱星-下一代177)是美国铱星下一代系列通信卫星,于2023年5月20日由SpaceX猎鹰9号火箭从范登堡空军基地发射升空。卫星重860千克,运行在高度约780公里、倾角86.4°的近地轨道,设计寿命10年,主要提供全球通信及交通监测服务,补充完善铱星卫星通信网络覆盖。

基本信息
目录编号:
56727
目录名称:
IRIDIUM 177
国际标识:
2023-068T
轨道中心:
EARTH
卫星名称:
铱星星座 177星
卫星全名:
铱星星座 177星 (IRIDIUM 177)
卫星状态:
在轨 (已飞行1123 天)
发射日期:
2023-05-20 UTC
国别 :
美国 (US)
星等 :
--
轨道信息
数据来源 国际轨道数据
星历时间: 2026-06-16T12:09:37+0800
9小时前
查看轨道信息
半长轴: 7006.74km
偏心率: 0.0002366
轨道倾角: 86.196°
近地点辐角 87.054°
升交点赤经 329.273°
平近点角 273.095°
近地点: 626.945km
远地点: 630.261km
周期: 97.282分钟
每日圈数: 14.802287
详细信息
平衡模式:
三轴稳定
覆盖范围:
全球
运营商:
铱星通信公司
运营商所在国:
美国
制造商(研发单位):
阿莱尼亚宇航公司
制造商所在国:
意大利
使用方式:
暂无
卫星简介
铱星(Iridium)是由共66个运作中的通信卫星组成的卫星通信系统。这个系统原本规划77个通信卫星,所以用原子序数为77的铱元素来命名。铱卫星允许人们使用手持型电子设备进行全球性的语音及数据通讯。该卫星仍在工作。
2D轨道图
3D轨道图
轨道高度分析图
轨道倾角分析图
轨道综合分析图
查看轨道综合分析图